Montgomery Regional (Dannelly Field) Airport
KMGM : now visible

Airfield :











YOU CAN JOIN US ON...

 
LOGIN :

Register | Disclaimer

   EN    FR    IT 

 









Legend :    VFR   Marginal VFR   IFR   Intensive IFR   Very Intensive IFR
Visi :
Ceiling :
>= 8 km
>= 3000ft
5 to 8 km
1000 to 3000 ft
1500m to 5 km
500 to 1000 ft
800 to 1500m
200 to 500 ft
< 800m
< 200 ft
Symbols :   Thunderstorms  Fog  Heavy snow  Heavy precipitations  Wind > 20 kt






- Airport Elevation : 221 ft
- IATA code : MGM


KMGM - Montgomery Regional (Dannelly Field)

CURRENT METAR :
  • 271453Z 09009KT 10SM OVC011 24/21 A3012 RMK AO2 SLP197 T02390206 50007

EXPIRED METARs :
  • 271353Z 11009KT 10SM OVC012 23/21 A3013 RMK AO2 SLP199 T02330206
  • 271253Z 08007KT 10SM OVC013 22/20 A3011 RMK AO2 SLP193 T02220200

TAF KMGM
Valid from the 27 at 12:00 until the 28 at 12:00 UTC


271222Z 2712/2812 08007KT P6SM OVC012
FM271500 10007KT P6SM BKN020
FM271700 11006KT P6SM BKN035
PROB30 2721/2723 4SM -SHRA
FM272300 08005KT 5SM -SHRA BKN040
FM280300 08004KT P6SM -SHRA OVC025
FM280700 10005KT P6SM OVC007
KZTL FIR / North America



MET'MAP, your aeronautical weather chart ! - Copyright ORBIFLY December 2007 - Disclaimer

ORBIFLY MET'MAP TEAM :

Programming & Development : Alexandra Zaïnal
Concept & original design : Baudouin d'Aumeries
Assistance for programming : Marc-Olivier Méhu
Technical & hardware support : Manuel Goepfert

Contact : metmap@orbifly.com




SOURCES & CREDITS :

   NOAA       Earth
Advisory